Marianna, WV

1:46 AM EST on February 12, 2016 (GMT -0500)
Pineville

Weather History for KI16 - June, 2013

Change the Weather History Date:

Saturday, June 8, 2013

  Actual Average (KBKW) Record (KBKW)
Temperature  
Mean Temperature 70 °F 66 °F  
Max Temperature 81 °F 75 °F 89 °F (1933)
Min Temperature 60 °F 56 °F 34 °F (1977)
Degree Days  
Heating Degree Days 0 2  
Month to date heating degree days 20  
Since 1 June heating degree days 20  
Since 1 July heating degree days 5321  
Cooling Degree Days 6 3  
Month to date cooling degree days 18  
Year to date cooling degree days 59  
Since 1 June cooling degree days 18  
Growing Degree Days 20 (Base 50)    
Moisture  
Dew Point 61 °F    
Average Humidity 82    
Maximum Humidity 100    
Minimum Humidity 45    
Precipitation  
Precipitation 0.00 in 0.13 in 1.71 in (1995)
Month to date precipitation 1.10  
Year to date precipitation 18.26  
Snow  
Snow 0.00 in - - ()
Month to date snowfall  
Since 1 September snowfall  
Snow Depth -    
Sea Level Pressure  
Sea Level Pressure 30.06 in    
Wind  
Wind Speed - (North)    
Max Wind Speed -    
Max Gust Speed -    
Visibility 7 miles    
Events Rain    
T = Trace of Precipitation, MM = Missing Value Source: NWS Daily Summary

Daily Weather History Graph

Daily Weather History Graph

Search for Another Location

Airport or City:

Trip Planner

Search our weather history database for the weather conditions in past years. The results will help you decide how hot, cold, wet, or windy it might be!

Date:

Astronomy

Jun. 08, 2013 Rise Set
Actual Time 6:04 AM EDT 8:46 PM EDT
Civil Twilight 5:33 AM EDT 9:17 PM EDT
Nautical Twilight 4:55 AM EDT 9:56 PM EDT
Astronomical Twilight 4:11 AM EDT 10:39 PM EDT
Moon 6:10 AM EDT (6/8) 8:48 PM EDT (6/8)
Length of Visible Light 15h 43m
Length of Day
14h 41m
New Moon, 0% of the Moon is Illuminated
Jun 8
New Moon
Jun 16
First Quarter
Jun 23
Full
Jun 30
Last Quarter
Jul 8
New

Hourly Weather History & Observations

Time (EDT) Temp. Heat Index Dew Point Humidity Pressure Visibility Wind Dir Wind Speed Gust Speed Precip Events Conditions
12:15 AM 60.3 °F - 60.3 °F 100% 29.96 in 2.5 mi North - - N/A   Mostly Cloudy
12:35 AM 60.1 °F - 60.1 °F 100% 29.96 in 2.0 mi North - - N/A   Overcast
12:55 AM 60.8 °F - 60.8 °F 100% 29.96 in 3.0 mi North - - N/A   Overcast
1:15 AM 60.8 °F - 60.8 °F 100% 29.96 in 2.5 mi North - - N/A   Overcast
1:35 AM 60.8 °F - 60.8 °F 100% 29.96 in 1.2 mi North - - N/A   Overcast
1:55 AM 60.8 °F - 60.8 °F 100% 29.95 in 1.5 mi North - - N/A   Overcast
2:15 AM 61.0 °F - 61.0 °F 100% 29.95 in 1.2 mi North - - N/A   Overcast
2:35 AM 60.8 °F - 60.8 °F 100% 29.96 in 1.0 mi North - - N/A   Light Drizzle
2:55 AM 60.8 °F - 60.8 °F 100% 29.96 in 1.5 mi North - - N/A Rain Light Rain
3:15 AM 60.8 °F - 60.8 °F 100% 29.96 in 2.5 mi North - - N/A   Light Drizzle
3:35 AM 60.8 °F - 60.8 °F 100% 29.96 in 1.8 mi North - - N/A Rain Light Rain
3:55 AM 60.8 °F - 60.8 °F 100% 29.96 in 3.0 mi North - - N/A Rain Light Rain
4:15 AM 61.0 °F - 61.0 °F 100% 29.97 in 3.0 mi North - - N/A Rain Light Rain
4:35 AM 61.2 °F - 61.2 °F 100% 29.98 in 2.5 mi North - - N/A   Overcast
4:55 AM 61.0 °F - 61.0 °F 100% 29.98 in 2.0 mi North - - N/A   Overcast
5:15 AM 61.2 °F - 61.2 °F 100% 29.98 in 1.0 mi North - - N/A   Overcast
5:35 AM 61.0 °F - 61.0 °F 100% 29.98 in 1.2 mi North - - N/A   Overcast
5:55 AM 60.8 °F - 60.8 °F 100% 29.99 in 2.5 mi North - - N/A   Overcast
6:15 AM 61.2 °F - 61.2 °F 100% 29.99 in 3.0 mi North - - N/A   Overcast
6:35 AM 61.2 °F - 61.2 °F 100% 30.01 in 3.0 mi North - - N/A   Overcast
6:55 AM 61.3 °F - 61.3 °F 100% 30.01 in 2.0 mi North - - N/A   Overcast
7:15 AM 61.7 °F - 61.7 °F 100% 30.03 in 2.5 mi North - - N/A   Overcast
7:35 AM 61.7 °F - 61.7 °F 100% 30.03 in 3.0 mi North - - N/A   Overcast
7:55 AM 61.9 °F - 61.9 °F 100% 30.03 in 4.0 mi North - - N/A   Overcast
8:15 AM 62.6 °F - 62.6 °F 100% 30.03 in 4.0 mi North - - N/A   Overcast
8:35 AM 63.7 °F - 62.8 °F 97% 30.03 in 5.0 mi North - - N/A   Overcast
8:55 AM 63.5 °F - 61.9 °F 94% 30.04 in 5.0 mi North - - N/A   Mostly Cloudy
9:15 AM 65.5 °F - 61.7 °F 88% 30.05 in 7.0 mi North - - N/A   Mostly Cloudy
9:35 AM 65.3 °F - 61.9 °F 89% 30.06 in 7.0 mi North - - N/A   Mostly Cloudy
9:55 AM 66.7 °F - 61.5 °F 83% 30.06 in 10.0 mi North - - N/A   Mostly Cloudy
10:15 AM 67.3 °F - 61.5 °F 82% 30.06 in 10.0 mi North - - N/A   Scattered Clouds
10:35 AM 68.5 °F - 61.2 °F 77% 30.07 in 10.0 mi North - - N/A   Scattered Clouds
10:55 AM 69.8 °F - 61.7 °F 75% 30.08 in 10.0 mi North - - N/A   Scattered Clouds
11:15 AM 71.6 °F - 62.2 °F 72% 30.08 in 10.0 mi North - - N/A   Clear
11:35 AM 72.1 °F - 62.2 °F 71% 30.10 in 10.0 mi North - - N/A   Clear
11:55 AM 72.0 °F - 61.5 °F 70% 30.10 in 10.0 mi North - - N/A   Clear
12:15 PM 73.8 °F - 61.2 °F 65% 30.10 in 10.0 mi North - - N/A   Clear
12:35 PM 74.7 °F - 60.1 °F 60% 30.10 in 10.0 mi North - - N/A   Scattered Clouds
12:55 PM 75.2 °F - 60.8 °F 61% 30.09 in 10.0 mi North - - N/A   Clear
1:15 PM 76.3 °F - 59.7 °F 56% 30.09 in 10.0 mi North - - N/A   Clear
1:35 PM 76.6 °F - 58.8 °F 54% 30.09 in 10.0 mi North - - N/A   Clear
1:55 PM 77.2 °F - 57.0 °F 50% 30.08 in 10.0 mi North - - N/A   Clear
2:15 PM 78.3 °F - 57.0 °F 48% 30.08 in 10.0 mi North - - N/A   Clear
2:35 PM 79.2 °F - 58.5 °F 49% 30.08 in 10.0 mi North - - N/A   Clear
2:55 PM 78.8 °F - 58.8 °F 50% 30.08 in 10.0 mi North - - N/A   Clear
3:15 PM 79.7 °F - 58.5 °F 48% 30.09 in 10.0 mi North - - N/A   Clear
3:35 PM 79.9 °F - 58.1 °F 47% 30.09 in 10.0 mi North - - N/A   Clear
3:55 PM 80.6 °F 80.8 °F 57.4 °F 45% 30.09 in 10.0 mi North - - N/A   Clear
4:15 PM 80.2 °F 80.7 °F 58.5 °F 47% 30.09 in 10.0 mi North - - N/A   Clear
4:35 PM 80.6 °F 81.0 °F 58.8 °F 47% 30.08 in 10.0 mi North - - N/A   Clear
4:55 PM 80.8 °F 81.3 °F 59.5 °F 48% 30.08 in 10.0 mi North - - N/A   Scattered Clouds
5:15 PM 80.4 °F 81.3 °F 60.6 °F 51% 30.09 in 10.0 mi North - - N/A   Clear
5:35 PM 81.1 °F 81.9 °F 60.6 °F 50% 30.09 in 10.0 mi North - - N/A   Clear
5:55 PM 80.2 °F 81.2 °F 61.2 °F 52% 30.09 in 10.0 mi North - - N/A   Clear
6:15 PM 79.9 °F - 62.4 °F 55% 30.09 in 10.0 mi North - - N/A   Clear
6:35 PM 77.4 °F - 65.7 °F 67% 30.09 in 10.0 mi North - - N/A   Clear
6:55 PM 75.4 °F - 65.5 °F 71% 30.09 in 10.0 mi North - - N/A   Clear
7:15 PM 73.8 °F - 67.1 °F 80% 30.10 in 10.0 mi North - - N/A   Clear
7:35 PM 72.1 °F - 66.2 °F 82% 30.11 in 10.0 mi North - - N/A   Clear
7:55 PM 70.7 °F - 66.6 °F 87% 30.11 in 10.0 mi North - - N/A   Clear
8:15 PM 69.6 °F - 66.0 °F 88% 30.11 in 10.0 mi North - - N/A   Clear
8:35 PM 68.0 °F - 64.9 °F 90% 30.12 in 10.0 mi North - - N/A   Clear
8:55 PM 67.1 °F - 64.8 °F 92% 30.13 in 10.0 mi North - - N/A   Clear
9:15 PM 66.2 °F - 64.4 °F 94% 30.13 in 10.0 mi North - - N/A   Clear
9:35 PM 64.8 °F - 63.5 °F 96% 30.14 in 10.0 mi North - - N/A   Scattered Clouds
9:55 PM 64.4 °F - 63.3 °F 96% 30.15 in 10.0 mi North - - N/A   Clear
10:15 PM 63.5 °F - 62.8 °F 97% 30.15 in 7.0 mi North - - N/A   Clear
10:35 PM 63.1 °F - 62.8 °F 99% 30.16 in 7.0 mi North - - N/A   Clear
10:55 PM 62.8 °F - 62.4 °F 99% 30.17 in 7.0 mi North - - N/A   Clear
11:15 PM 62.6 °F - 62.4 °F 99% 30.17 in 7.0 mi North - - N/A   Scattered Clouds
11:35 PM 62.6 °F - 62.6 °F 100% 30.18 in 5.0 mi North - - N/A   Scattered Clouds
11:55 PM 62.2 °F - 62.2 °F 100% 30.18 in 5.0 mi North - - N/A   Scattered Clouds